Check out our new BloomSky Weather System.

Active alerts


No alerts


Thunder radar  blitzortung!


Rain radar more information rain snow radar


Visit our other weather sites:

Template documentation
and downloads

And another site



Weather Underground History page Text

Daily Summary for May 11, 2017 Units:  Metric    English   Both
« Previous Day
Next Day »
Daily Weekly Monthly Yearly Custom
  High: Low: Average:
Temperature: 30.1 °C 22.7 °C 25.9 °C
Dew Point: 24.3 °C 20.1 °C 22.3 °C
Humidity: 95 % 61 % 82 %
Wind Speed: 24.1 km/h 0 km/h 7.1 km/h
Wind Gust: 30.6 km/h - -
Wind:- - SSE
Pressure: 1014.4 hPa 1008.4 hPa -
Precipitation: 0 mm    
Historical Graphs
 
 
Tabular Data for May 11, 2017
Time Temperature Dew Point Pressure Wind Wind Speed Wind Gust Humidity Rainfall Rate (Hourly)
00:02 23.6 °C 21.5 °C 1014.4 hPa SSE 3.2 km/h 9.7 km/h 88 % 0 mm
00:07 23.5 °C 21.4 °C 1014.4 hPa ESE 3.2 km/h 9.7 km/h 88 % 0 mm
00:12 23.5 °C 21.4 °C 1014.4 hPa SE 6.4 km/h 6.4 km/h 88 % 0 mm
00:17 23.4 °C 21.5 °C 1014.1 hPa SE 4.8 km/h 6.4 km/h 89 % 0 mm
00:22 23.4 °C 21.5 °C 1014.1 hPa SE 6.4 km/h 9.7 km/h 89 % 0 mm
00:27 23.4 °C 21.5 °C 1014.1 hPa SE 6.4 km/h 9.7 km/h 89 % 0 mm
00:32 23.4 °C 21.5 °C 1014.1 hPa ESE 4.8 km/h 9.7 km/h 89 % 0 mm
00:37 23.4 °C 21.5 °C 1014.1 hPa ESE 3.2 km/h 9.7 km/h 89 % 0 mm
00:42 23.3 °C 21.4 °C 1013.8 hPa SE 4.8 km/h 11.3 km/h 89 % 0 mm
00:47 23.3 °C 21.6 °C 1013.8 hPa ESE 4.8 km/h 11.3 km/h 90 % 0 mm
00:52 23.3 °C 21.6 °C 1013.8 hPa ESE 1.6 km/h 11.3 km/h 90 % 0 mm
00:57 23.2 °C 21.5 °C 1013.8 hPa South 1.6 km/h 8 km/h 90 % 0 mm
01:02 23.2 °C 21.5 °C 1013.8 hPa SSE 3.2 km/h 9.7 km/h 90 % 0 mm
01:07 23.2 °C 21.5 °C 1013.8 hPa SE 3.2 km/h 9.7 km/h 90 % 0 mm
01:12 23.1 °C 21.5 °C 1013.8 hPa ESE 3.2 km/h 9.7 km/h 91 % 0 mm
01:17 23.1 °C 21.5 °C 1013.8 hPa SSW 3.2 km/h 8 km/h 91 % 0 mm
01:22 23.1 °C 21.5 °C 1013.8 hPa ESE 1.6 km/h 8 km/h 91 % 0 mm
01:27 23.1 °C 21.5 °C 1013.8 hPa SSE 6.4 km/h 8 km/h 91 % 0 mm
01:32 23 °C 21.4 °C 1013.4 hPa SE 3.2 km/h 8 km/h 91 % 0 mm
01:37 22.9 °C 21.4 °C 1013.4 hPa East 1.6 km/h 8 km/h 91 % 0 mm
01:42 22.9 °C 21.5 °C 1013.1 hPa Calm   8 km/h 92 % 0 mm
01:47 22.8 °C 21.4 °C 1013.1 hPa ESE 3.2 km/h 6.4 km/h 92 % 0 mm
01:52 22.8 °C 21.4 °C 1013.1 hPa East 1.6 km/h 4.8 km/h 92 % 0 mm
01:57 22.8 °C 21.4 °C 1013.1 hPa ESE 3.2 km/h 4.8 km/h 92 % 0 mm
02:02 22.8 °C 21.4 °C 1012.8 hPa ESE 3.2 km/h 4.8 km/h 92 % 0 mm
02:08 22.7 °C 21.5 °C 1012.8 hPa ESE 1.6 km/h 8 km/h 93 % 0 mm
02:13 22.7 °C 21.5 °C 1012.8 hPa ESE 3.2 km/h 8 km/h 93 % 0 mm
02:18 22.7 °C 21.5 °C 1012.8 hPa ESE 3.2 km/h 11.3 km/h 93 % 0 mm
02:23 22.7 °C 21.5 °C 1012.8 hPa ESE 3.2 km/h 11.3 km/h 93 % 0 mm
02:28 22.7 °C 21.5 °C 1012.8 hPa SE 3.2 km/h 11.3 km/h 93 % 0 mm
02:33 22.7 °C 21.7 °C 1012.8 hPa ESE 4.8 km/h 9.7 km/h 94 % 0 mm
02:38 22.7 °C 21.7 °C 1012.4 hPa SE 6.4 km/h 9.7 km/h 94 % 0 mm
02:43 22.8 °C 21.8 °C 1012.4 hPa SSE 8 km/h 9.7 km/h 94 % 0 mm
02:48 22.8 °C 21.8 °C 1012.4 hPa Calm   8 km/h 94 % 0 mm
02:53 22.8 °C 21.8 °C 1012.4 hPa SSE 1.6 km/h 8 km/h 94 % 0 mm
02:58 22.8 °C 21.8 °C 1012.8 hPa South 3.2 km/h 8 km/h 94 % 0 mm
03:03 22.8 °C 21.8 °C 1012.4 hPa SSE 4.8 km/h 6.4 km/h 94 % 0 mm
03:08 22.8 °C 21.8 °C 1012.4 hPa SSE 3.2 km/h 6.4 km/h 94 % 0 mm
03:13 22.9 °C 21.9 °C 1012.4 hPa South 1.6 km/h 6.4 km/h 94 % 0 mm
03:18 22.9 °C 21.9 °C 1012.4 hPa SSE 3.2 km/h 8 km/h 94 % 0 mm
03:23 22.9 °C 21.9 °C 1012.4 hPa SE 3.2 km/h 8 km/h 94 % 0 mm
03:28 22.9 °C 21.9 °C 1012.1 hPa Calm   8 km/h 94 % 0 mm
03:33 22.9 °C 22.1 °C 1012.1 hPa SE 1.6 km/h 8 km/h 95 % 0 mm
03:38 23 °C 22.2 °C 1012.4 hPa SSE 3.2 km/h 9.7 km/h 95 % 0 mm
03:43 23 °C 22.2 °C 1012.1 hPa SSE 3.2 km/h 9.7 km/h 95 % 0 mm
03:48 23.1 °C 22.3 °C 1012.1 hPa SE 6.4 km/h 9.7 km/h 95 % 0 mm
03:53 23.1 °C 22.3 °C 1012.1 hPa SSE 4.8 km/h 9.7 km/h 95 % 0 mm
03:58 23.1 °C 22.3 °C 1012.1 hPa SE 3.2 km/h 9.7 km/h 95 % 0 mm
04:03 23.2 °C 22.4 °C 1011.7 hPa South 4.8 km/h 9.7 km/h 95 % 0 mm
04:08 23.2 °C 22.4 °C 1011.7 hPa East 9.7 km/h 12.9 km/h 95 % 0 mm
04:13 23.2 °C 22.4 °C 1011.4 hPa SE 11.3 km/h 16.1 km/h 95 % 0 mm
04:18 23.3 °C 22.5 °C 1011.4 hPa SSE 8 km/h 16.1 km/h 95 % 0 mm
04:23 23.3 °C 22.5 °C 1011.1 hPa ESE 6.4 km/h 16.1 km/h 95 % 0 mm
04:28 23.4 °C 22.6 °C 1011.1 hPa SE 4.8 km/h 16.1 km/h 95 % 0 mm
04:33 23.4 °C 22.6 °C 1011.1 hPa SSW 8 km/h 17.7 km/h 95 % 0 mm
04:38 23.4 °C 22.6 °C 1011.1 hPa SE 6.4 km/h 17.7 km/h 95 % 0 mm
04:43 23.4 °C 22.6 °C 1011.1 hPa South 4.8 km/h 17.7 km/h 95 % 0 mm
04:48 23.4 °C 22.6 °C 1011.1 hPa SSE 4.8 km/h 12.9 km/h 95 % 0 mm
04:53 23.4 °C 22.6 °C 1011.1 hPa SE 6.4 km/h 12.9 km/h 95 % 0 mm
04:58 23.4 °C 22.6 °C 1011.1 hPa South 4.8 km/h 16.1 km/h 95 % 0 mm
05:03 23.4 °C 22.6 °C 1011.1 hPa SE 6.4 km/h 16.1 km/h 95 % 0 mm
05:08 23.5 °C 22.7 °C 1011.4 hPa SSE 6.4 km/h 16.1 km/h 95 % 0 mm
05:13 23.5 °C 22.7 °C 1011.4 hPa South 3.2 km/h 16.1 km/h 95 % 0 mm
05:18 23.5 °C 22.7 °C 1011.4 hPa SE 8 km/h 12.9 km/h 95 % 0 mm
05:23 23.6 °C 22.8 °C 1011.1 hPa SE 8 km/h 14.5 km/h 95 % 0 mm
05:28 23.6 °C 22.8 °C 1011.1 hPa SE 6.4 km/h 14.5 km/h 95 % 0 mm
05:34 23.7 °C 22.9 °C 1011.1 hPa SE 6.4 km/h 14.5 km/h 95 % 0 mm
05:39 23.7 °C 22.9 °C 1011.1 hPa ESE 3.2 km/h 12.9 km/h 95 % 0 mm
05:44 23.7 °C 22.9 °C 1011.1 hPa ESE 8 km/h 12.9 km/h 95 % 0 mm
05:49 23.7 °C 22.9 °C 1011.4 hPa ESE 6.4 km/h 12.9 km/h 95 % 0 mm
05:54 23.8 °C 22.9 °C 1011.4 hPa SE 3.2 km/h 12.9 km/h 95 % 0 mm
05:59 23.8 °C 22.9 °C 1011.7 hPa East 3.2 km/h 12.9 km/h 95 % 0 mm
06:04 23.8 °C 22.9 °C 1011.7 hPa ESE 1.6 km/h 11.3 km/h 95 % 0 mm
06:09 23.8 °C 22.9 °C 1011.7 hPa SE 1.6 km/h 11.3 km/h 95 % 0 mm
06:14 23.8 °C 22.9 °C 1011.7 hPa ESE 1.6 km/h 8 km/h 95 % 0 mm
06:19 23.8 °C 22.9 °C 1011.7 hPa Calm   6.4 km/h 95 % 0 mm
06:24 23.8 °C 22.9 °C 1012.1 hPa Calm   4.8 km/h 95 % 0 mm
06:26 23.8 °C 22.9 °C 1012.1 hPa Calm   4.8 km/h 95 % 0 mm
06:31 23.8 °C 22.9 °C 1012.4 hPa Calm   3.2 km/h 95 % 0 mm
06:39 23.8 °C 22.9 °C 1012.8 hPa Calm   1.6 km/h 95 % 0 mm
06:44 23.8 °C 22.9 °C 1012.8 hPa Calm   1.6 km/h 95 % 0 mm
06:49 23.8 °C 22.9 °C 1012.8 hPa Calm   3.2 km/h 95 % 0 mm
06:54 23.8 °C 22.9 °C 1012.8 hPa Calm   3.2 km/h 95 % 0 mm
06:59 23.8 °C 22.9 °C 1012.8 hPa Calm   3.2 km/h 95 % 0 mm
07:04 23.8 °C 22.9 °C 1013.1 hPa Calm   1.6 km/h 95 % 0 mm
07:09 23.9 °C 23 °C 1013.1 hPa Calm   1.6 km/h 95 % 0 mm
07:14 23.9 °C 23 °C 1013.1 hPa NNW 1.6 km/h 1.6 km/h 95 % 0 mm
07:19 23.9 °C 23 °C 1013.4 hPa Calm   1.6 km/h 95 % 0 mm
07:24 24 °C 23.1 °C 1013.4 hPa Calm   1.6 km/h 95 % 0 mm
07:29 24 °C 23.1 °C 1013.8 hPa Calm   1.6 km/h 95 % 0 mm
07:34 23.9 °C 23 °C 1013.8 hPa Calm   1.6 km/h 95 % 0 mm
07:39 24 °C 23.1 °C 1013.8 hPa Calm   1.6 km/h 95 % 0 mm
07:44 24 °C 23.1 °C 1013.8 hPa Calm   3.2 km/h 95 % 0 mm
07:49 24 °C 23.1 °C 1013.8 hPa Calm   3.2 km/h 95 % 0 mm
07:54 24.1 °C 23.2 °C 1013.8 hPa Calm   3.2 km/h 95 % 0 mm
08:00 24.1 °C 23.2 °C 1013.8 hPa Calm     95 % 0 mm
08:05 24.2 °C 23.3 °C 1014.1 hPa Calm   3.2 km/h 95 % 0 mm
08:10 24.3 °C 23.4 °C 1014.1 hPa Calm   3.2 km/h 95 % 0 mm
08:15 24.4 °C 23.5 °C 1014.1 hPa Calm   3.2 km/h 95 % 0 mm
08:20 24.6 °C 23.7 °C 1014.1 hPa Calm   1.6 km/h 95 % 0 mm
08:25 24.8 °C 23.8 °C 1013.8 hPa Calm   1.6 km/h 94 % 0 mm
08:30 24.9 °C 23.9 °C 1013.8 hPa NE 1.6 km/h 3.2 km/h 94 % 0 mm
08:35 25 °C 23.8 °C 1013.8 hPa Calm   4.8 km/h 93 % 0 mm
08:40 25.1 °C 23.9 °C 1013.8 hPa Calm   4.8 km/h 93 % 0 mm
08:45 25.1 °C 23.7 °C 1013.8 hPa ESE 3.2 km/h 4.8 km/h 92 % 0 mm
08:50 25 °C 23.6 °C 1013.8 hPa ENE 1.6 km/h 3.2 km/h 92 % 0 mm
08:55 24.9 °C 23.5 °C 1013.8 hPa Calm   3.2 km/h 92 % 0 mm
09:00 24.9 °C 23.5 °C 1013.8 hPa Calm   4.8 km/h 92 % 0 mm
09:05 24.9 °C 23.5 °C 1013.8 hPa Calm   4.8 km/h 92 % 0 mm
09:10 24.9 °C 23.5 °C 1014.1 hPa Calm   4.8 km/h 92 % 0 mm
09:15 24.8 °C 23.4 °C 1014.1 hPa Calm   4.8 km/h 92 % 0 mm
09:20 24.9 °C 23.5 °C 1014.1 hPa Calm   3.2 km/h 92 % 0 mm
09:25 24.9 °C 23.5 °C 1014.1 hPa ENE 1.6 km/h 3.2 km/h 92 % 0 mm
09:30 25 °C 23.6 °C 1014.1 hPa NE 1.6 km/h 3.2 km/h 92 % 0 mm
09:35 25 °C 23.6 °C 1014.1 hPa Calm   3.2 km/h 92 % 0 mm
09:40 24.9 °C 23.5 °C 1013.8 hPa North 1.6 km/h 4.8 km/h 92 % 0 mm
09:45 24.9 °C 23.5 °C 1014.1 hPa Calm   4.8 km/h 92 % 0 mm
09:50 24.8 °C 23.4 °C 1014.1 hPa Calm   4.8 km/h 92 % 0 mm
09:55 24.8 °C 23.4 °C 1014.1 hPa SE 1.6 km/h 6.4 km/h 92 % 0 mm
10:00 24.8 °C 23.6 °C 1014.1 hPa South 1.6 km/h 6.4 km/h 93 % 0 mm
10:05 24.8 °C 23.6 °C 1014.1 hPa SE 3.2 km/h 6.4 km/h 93 % 0 mm
10:10 25 °C 23.8 °C 1013.8 hPa East 3.2 km/h 6.4 km/h 93 % 0 mm
10:15 25.1 °C 23.9 °C 1013.8 hPa SE 1.6 km/h 6.4 km/h 93 % 0 mm
10:20 25.3 °C 23.9 °C 1013.8 hPa SE 6.4 km/h 8 km/h 92 % 0 mm
10:25 25.5 °C 23.9 °C 1013.8 hPa SSE 6.4 km/h 14.5 km/h 91 % 0 mm
10:30 25.8 °C 23.8 °C 1013.8 hPa SSE 6.4 km/h 14.5 km/h 89 % 0 mm
10:35 25.9 °C 23.6 °C 1013.8 hPa ESE 6.4 km/h 14.5 km/h 87 % 0 mm
10:40 26.2 °C 23.9 °C 1013.8 hPa SE 4.8 km/h 14.5 km/h 87 % 0 mm
10:45 26.3 °C 23.8 °C 1014.1 hPa ESE 6.4 km/h 14.5 km/h 86 % 0 mm
10:50 26.4 °C 23.7 °C 1013.8 hPa South 6.4 km/h 14.5 km/h 85 % 0 mm
10:55 26.5 °C 23.8 °C 1013.8 hPa SSE 4.8 km/h 14.5 km/h 85 % 0 mm
11:01 26.7 °C 24 °C 1013.8 hPa SSE 6.4 km/h 12.9 km/h 85 % 0 mm
11:06 27.2 °C 24.3 °C 1013.8 hPa SE 4.8 km/h 11.3 km/h 84 % 0 mm
11:11 27.6 °C 23.8 °C 1013.8 hPa SE 12.9 km/h 14.5 km/h 80 % 0 mm
11:16 27.7 °C 24.1 °C 1013.8 hPa SE 11.3 km/h 17.7 km/h 81 % 0 mm
11:21 27.6 °C 23.6 °C 1013.8 hPa SSW 6.4 km/h 19.3 km/h 79 % 0 mm
11:26 27.6 °C 23.6 °C 1013.8 hPa SE 9.7 km/h 19.3 km/h 79 % 0 mm
11:31 27.4 °C 23.4 °C 1013.4 hPa SSE 11.3 km/h 19.3 km/h 79 % 0 mm
11:36 27.4 °C 23.4 °C 1013.4 hPa SSE 3.2 km/h 19.3 km/h 79 % 0 mm
11:41 27.4 °C 23.4 °C 1013.8 hPa South 9.7 km/h 19.3 km/h 79 % 0 mm
11:46 27.4 °C 23.4 °C 1013.8 hPa South 6.4 km/h 12.9 km/h 79 % 0 mm
11:51 27.6 °C 23.4 °C 1013.8 hPa South 11.3 km/h 17.7 km/h 78 % 0 mm
11:56 28.1 °C 23.9 °C 1013.8 hPa ESE 4.8 km/h 17.7 km/h 78 % 0 mm
12:01 28.3 °C 23.9 °C 1013.8 hPa SSE 14.5 km/h 20.9 km/h 77 % 0 mm
12:06 28.5 °C 23.6 °C 1013.4 hPa South 12.9 km/h 20.9 km/h 75 % 0 mm
12:11 28.3 °C 23.4 °C 1013.4 hPa SE 11.3 km/h 20.9 km/h 75 % 0 mm
12:16 27.9 °C 23.5 °C 1013.4 hPa SSE 3.2 km/h 14.5 km/h 77 % 0 mm
12:21 27.6 °C 23.4 °C 1013.4 hPa SSE 6.4 km/h 17.7 km/h 78 % 0 mm
12:26 27.4 °C 23.6 °C 1013.4 hPa South 3.2 km/h 17.7 km/h 80 % 0 mm
12:31 27.3 °C 24 °C 1013.4 hPa ESE 14.5 km/h 17.7 km/h 82 % 0 mm
12:36 27.2 °C 23.7 °C 1013.1 hPa SE 3.2 km/h 14.5 km/h 81 % 0 mm
12:41 27.3 °C 23.7 °C 1013.1 hPa SSE 6.4 km/h 16.1 km/h 81 % 0 mm
12:46 27.8 °C 23.8 °C 1013.1 hPa South 12.9 km/h 17.7 km/h 79 % 0 mm
12:51 28.1 °C 23.9 °C 1013.1 hPa SE 12.9 km/h 20.9 km/h 78 % 0 mm
12:56 28.4 °C 23.8 °C 1012.8 hPa SSE 12.9 km/h 20.9 km/h 76 % 0 mm
13:01 28.8 °C 23.9 °C 1012.8 hPa SE 6.4 km/h 25.7 km/h 75 % 0 mm
13:06 29.2 °C 23.9 °C 1012.8 hPa SSE 14.5 km/h 25.7 km/h 73 % 0 mm
13:11 29.2 °C 23.2 °C 1012.8 hPa SE 9.7 km/h 25.7 km/h 70 % 0 mm
13:16 29 °C 23.4 °C 1012.8 hPa SE 8 km/h 24.1 km/h 72 % 0 mm
13:21 29.1 °C 23.3 °C 1012.8 hPa SSE 9.7 km/h 24.1 km/h 71 % 0 mm
13:26 29.4 °C 23.4 °C 1012.4 hPa SE 14.5 km/h 24.1 km/h 70 % 0 mm
13:31 29.5 °C 23.4 °C 1012.4 hPa SSE 11.3 km/h 24.1 km/h 70 % 0 mm
13:36 29.6 °C 23.8 °C 1012.4 hPa SSE 8 km/h 24.1 km/h 71 % 0 mm
13:41 29.5 °C 23.4 °C 1012.4 hPa SE 12.9 km/h 25.7 km/h 70 % 0 mm
13:46 29.7 °C 23.6 °C 1012.1 hPa South 16.1 km/h 25.7 km/h 70 % 0 mm
13:51 29.9 °C 23.6 °C 1012.4 hPa SE 9.7 km/h 25.7 km/h 69 % 0 mm
13:56 29.7 °C 23.2 °C 1012.1 hPa SE 20.9 km/h 27.4 km/h 68 % 0 mm
14:01 29.6 °C 23.3 °C 1012.1 hPa SSE 11.3 km/h 27.4 km/h 69 % 0 mm
14:06 29.4 °C 23.4 °C 1012.1 hPa ESE 17.7 km/h 29 km/h 70 % 0 mm
14:11 29.4 °C 23.1 °C 1012.1 hPa East 14.5 km/h 29 km/h 69 % 0 mm
14:16 29.3 °C 22.8 °C 1012.1 hPa SE 14.5 km/h 29 km/h 68 % 0 mm
14:21 29.6 °C 22.8 °C 1012.1 hPa SE 19.3 km/h 27.4 km/h 67 % 0 mm
14:26 30.1 °C 23 °C 1012.1 hPa South 11.3 km/h 27.4 km/h 66 % 0 mm
14:31 30 °C 22.9 °C 1011.7 hPa SE 14.5 km/h 30.6 km/h 66 % 0 mm
14:36 30.1 °C 22.8 °C 1011.7 hPa ESE 20.9 km/h 30.6 km/h 65 % 0 mm
14:41 30 °C 22.7 °C 1011.7 hPa SE 17.7 km/h 30.6 km/h 65 % 0 mm
14:46 29.7 °C 22.7 °C 1011.7 hPa SE 16.1 km/h 30.6 km/h 66 % 0 mm
14:51 29.7 °C 22.7 °C 1011.7 hPa SSE 12.9 km/h 30.6 km/h 66 % 0 mm
14:56 29.8 °C 22.8 °C 1011.7 hPa South 14.5 km/h 30.6 km/h 66 % 0 mm
15:01 29.8 °C 22.5 °C 1011.7 hPa South 22.5 km/h 29 km/h 65 % 0 mm
15:06 29.6 °C 22.8 °C 1011.7 hPa South 12.9 km/h 29 km/h 67 % 0 mm
15:12 29.3 °C 22.5 °C 1011.7 hPa SE 16.1 km/h 27.4 km/h 67 % 0 mm
15:17 29.4 °C 22.6 °C 1011.7 hPa SE 16.1 km/h 29 km/h 67 % 0 mm
15:22 29.8 °C 23 °C 1011.7 hPa SE 16.1 km/h 29 km/h 67 % 0 mm
15:27 29.6 °C 22.6 °C 1011.4 hPa ESE 8 km/h 29 km/h 66 % 0 mm
15:32 29.7 °C 22.7 °C 1011.4 hPa SE 9.7 km/h 25.7 km/h 66 % 0 mm
15:37 29.7 °C 22.9 °C 1011.1 hPa SSE 17.7 km/h 25.7 km/h 67 % 0 mm
15:42 30 °C 22.7 °C 1011.1 hPa ESE 16.1 km/h 25.7 km/h 65 % 0 mm
15:47 30 °C 22.7 °C 1011.1 hPa SE 24.1 km/h 25.7 km/h 65 % 0 mm
15:52 29.7 °C 22.4 °C 1011.1 hPa SSE 11.3 km/h 25.7 km/h 65 % 0 mm
15:57 29.4 °C 21.9 °C 1011.1 hPa SE 11.3 km/h 27.4 km/h 64 % 0 mm
16:02 29.6 °C 22.3 °C 1010.7 hPa SE 12.9 km/h 30.6 km/h 65 % 0 mm
16:07 29.7 °C 22.4 °C 1010.7 hPa SSE 12.9 km/h 30.6 km/h 65 % 0 mm
16:12 29.6 °C 22.3 °C 1010.7 hPa SE 12.9 km/h 30.6 km/h 65 % 0 mm
16:17 29.4 °C 22.1 °C 1010.7 hPa SE 17.7 km/h 27.4 km/h 65 % 0 mm
16:22 29.3 °C 22.5 °C 1010.7 hPa SSW 16.1 km/h 27.4 km/h 67 % 0 mm
16:27 29.1 °C 22.6 °C 1010.7 hPa SSW 8 km/h 25.7 km/h 68 % 0 mm
16:32 29.2 °C 22.4 °C 1010.7 hPa SE 12.9 km/h 24.1 km/h 67 % 0 mm
16:37 29.1 °C 22.3 °C 1010.7 hPa South 14.5 km/h 27.4 km/h 67 % 0 mm
16:42 28.9 °C 22.2 °C 1010.4 hPa ESE 11.3 km/h 27.4 km/h 67 % 0 mm
16:47 29.1 °C 22.1 °C 1010.4 hPa SE 11.3 km/h 27.4 km/h 66 % 0 mm
16:52 29.1 °C 22.3 °C 1010.4 hPa South 9.7 km/h 27.4 km/h 67 % 0 mm
16:57 28.9 °C 21.9 °C 1010.4 hPa South 12.9 km/h 27.4 km/h 66 % 0 mm
17:02 28.8 °C 22.1 °C 1010 hPa SSW 12.9 km/h 27.4 km/h 67 % 0 mm
17:07 28.9 °C 22.2 °C 1010 hPa SE 20.9 km/h 27.4 km/h 67 % 0 mm
17:12 28.9 °C 21.9 °C 1010 hPa SSE 9.7 km/h 27.4 km/h 66 % 0 mm
17:17 28.9 °C 22.2 °C 1010 hPa East 14.5 km/h 27.4 km/h 67 % 0 mm
17:22 29.1 °C 22.1 °C 1009.7 hPa ESE 17.7 km/h 27.4 km/h 66 % 0 mm
17:27 29.2 °C 21.9 °C 1009.7 hPa ESE 17.7 km/h 25.7 km/h 65 % 0 mm
17:32 29.2 °C 21.7 °C 1009.7 hPa SSW 9.7 km/h 25.7 km/h 64 % 0 mm
17:37 29.2 °C 21.7 °C 1009.7 hPa East 19.3 km/h 25.7 km/h 64 % 0 mm
17:42 29.3 °C 21.5 °C 1009.7 hPa SSE 14.5 km/h 25.7 km/h 63 % 0 mm
17:47 29.3 °C 21 °C 1009.4 hPa ESE 14.5 km/h 25.7 km/h 61 % 0 mm
17:52 29.2 °C 21.2 °C 1009.4 hPa SE 16.1 km/h 27.4 km/h 62 % 0 mm
17:57 28.9 °C 21.1 °C 1009.4 hPa SE 14.5 km/h 27.4 km/h 63 % 0 mm
18:02 28.9 °C 21.4 °C 1009.4 hPa South 8 km/h 27.4 km/h 64 % 0 mm
18:03 28.9 °C 21.4 °C 1009.4 hPa South 9.7 km/h 27.4 km/h 64 % 0 mm
18:08 28.9 °C 21.4 °C 1009.4 hPa South 16.1 km/h 25.7 km/h 64 % 0 mm
18:13 28.9 °C 20.9 °C 1009.4 hPa SSE 11.3 km/h 25.7 km/h 62 % 0 mm
18:18 28.9 °C 20.6 °C 1009.4 hPa ESE 19.3 km/h 25.7 km/h 61 % 0 mm
18:23 28.8 °C 20.8 °C 1009.4 hPa SE 6.4 km/h 25.7 km/h 62 % 0 mm
18:28 28.7 °C 20.7 °C 1009.4 hPa South 17.7 km/h 25.7 km/h 62 % 0 mm
18:33 28.7 °C 20.7 °C 1009.4 hPa South 4.8 km/h 25.7 km/h 62 % 0 mm
18:38 28.6 °C 20.6 °C 1009 hPa SSW 12.9 km/h 24.1 km/h 62 % 0 mm
18:43 28.4 °C 20.2 °C 1009 hPa SE 14.5 km/h 24.1 km/h 61 % 0 mm
18:48 28.4 °C 20.2 °C 1008.7 hPa South 14.5 km/h 27.4 km/h 61 % 0 mm
18:53 28.2 °C 20.2 °C 1008.4 hPa SSW 14.5 km/h 27.4 km/h 62 % 0 mm
18:58 28.1 °C 20.1 °C 1008.4 hPa SSE 9.7 km/h 27.4 km/h 62 % 0 mm
19:03 27.9 °C 20.2 °C 1008.7 hPa SSE 19.3 km/h 25.7 km/h 63 % 0 mm
19:08 27.8 °C 20.4 °C 1008.7 hPa SSE 22.5 km/h 25.7 km/h 64 % 0 mm
19:13 27.7 °C 20.3 °C 1008.4 hPa SE 11.3 km/h 29 km/h 64 % 0 mm
19:18 27.6 °C 20.4 °C 1008.7 hPa SSW 17.7 km/h 29 km/h 65 % 0 mm
19:23 27.4 °C 20.5 °C 1008.4 hPa ESE 20.9 km/h 30.6 km/h 66 % 0 mm
19:28 27.3 °C 20.4 °C 1008.4 hPa SE 12.9 km/h 30.6 km/h 66 % 0 mm
19:33 27.2 °C 20.3 °C 1008.7 hPa SE 14.5 km/h 30.6 km/h 66 % 0 mm
19:38 27.1 °C 20.2 °C 1008.7 hPa SSW 12.9 km/h 27.4 km/h 66 % 0 mm
19:43 26.9 °C 20.3 °C 1009 hPa South 11.3 km/h 27.4 km/h 67 % 0 mm
19:48 26.8 °C 20.2 °C 1008.7 hPa SSE 11.3 km/h 27.4 km/h 67 % 0 mm
19:53 26.7 °C 20.3 °C 1009 hPa SSE 9.7 km/h 25.7 km/h 68 % 0 mm
19:58 26.6 °C 20.2 °C 1009 hPa SSW 8 km/h 25.7 km/h 68 % 0 mm
20:03 26.4 °C 20.3 °C 1009.4 hPa SSW 8 km/h 25.7 km/h 69 % 0 mm
20:08 26.3 °C 20.4 °C 1009.4 hPa SSW 11.3 km/h 20.9 km/h 70 % 0 mm
20:13 26.3 °C 20.4 °C 1009.4 hPa SE 8 km/h 20.9 km/h 70 % 0 mm
20:18 26.2 °C 20.5 °C 1009.4 hPa SE 4.8 km/h 20.9 km/h 71 % 0 mm
20:23 26.1 °C 20.4 °C 1009.7 hPa SSE 4.8 km/h 20.9 km/h 71 % 0 mm
20:29 26 °C 20.6 °C 1010 hPa South 9.7 km/h 20.9 km/h 72 % 0 mm
20:34 25.9 °C 20.5 °C 1010 hPa SE 4.8 km/h 14.5 km/h 72 % 0 mm
20:39 25.9 °C 20.5 °C 1010.4 hPa SSE 1.6 km/h 14.5 km/h 72 % 0 mm
20:44 25.9 °C 20.7 °C 1010.7 hPa SE 1.6 km/h 11.3 km/h 73 % 0 mm
20:49 25.8 °C 20.6 °C 1010.7 hPa SSE 1.6 km/h 9.7 km/h 73 % 0 mm
20:54 25.8 °C 20.8 °C 1010.7 hPa SSE 1.6 km/h 9.7 km/h 74 % 0 mm
20:59 25.8 °C 20.8 °C 1010.7 hPa SSE 3.2 km/h 8 km/h 74 % 0 mm
21:04 25.8 °C 21 °C 1010.7 hPa SSW 6.4 km/h 11.3 km/h 75 % 0 mm
21:09 25.8 °C 21 °C 1010.7 hPa SW 3.2 km/h 12.9 km/h 75 % 0 mm
21:14 25.8 °C 21 °C 1010.7 hPa SE 6.4 km/h 12.9 km/h 75 % 0 mm
21:20 25.7 °C 21.1 °C 1010.7 hPa SSW 3.2 km/h 12.9 km/h 76 % 0 mm
21:22 25.7 °C 21.1 °C 1010.7 hPa SSE 4.8 km/h 12.9 km/h 76 % 0 mm
21:27 25.7 °C 21.1 °C 1010.7 hPa South 4.8 km/h 12.9 km/h 76 % 0 mm
21:32 25.6 °C 21.1 °C 1011.1 hPa South 9.7 km/h 12.9 km/h 76 % 0 mm
21:37 25.6 °C 21.3 °C 1010.7 hPa South 6.4 km/h 14.5 km/h 77 % 0 mm
21:42 25.6 °C 21.3 °C 1010.7 hPa South 9.7 km/h 14.5 km/h 77 % 0 mm
21:46 25.5 °C 21.2 °C 1011.1 hPa South 4.8 km/h 14.5 km/h 77 % 0 mm
21:51 25.4 °C 21.1 °C 1010.7 hPa South 8 km/h 16.1 km/h 77 % 0 mm
21:56 25.4 °C 21.3 °C 1011.1 hPa SE 3.2 km/h 16.1 km/h 78 % 0 mm
22:01 25.3 °C 21.2 °C 1011.1 hPa SE 1.6 km/h 16.1 km/h 78 % 0 mm
22:06 25.3 °C 21.2 °C 1011.1 hPa SSW 4.8 km/h 11.3 km/h 78 % 0 mm
22:11 25.3 °C 21.4 °C 1011.1 hPa SSW 3.2 km/h 8 km/h 79 % 0 mm
22:16 25.2 °C 21.3 °C 1011.4 hPa ESE 4.8 km/h 6.4 km/h 79 % 0 mm
22:21 25.2 °C 21.5 °C 1011.4 hPa SE 4.8 km/h 9.7 km/h 80 % 0 mm
22:26 25.1 °C 21.4 °C 1011.4 hPa SSW 3.2 km/h 9.7 km/h 80 % 0 mm
22:31 25.1 °C 21.6 °C 1011.4 hPa SSW 9.7 km/h 9.7 km/h 81 % 0 mm
22:36 25 °C 21.5 °C 1011.4 hPa SSE 4.8 km/h 11.3 km/h 81 % 0 mm
22:41 24.9 °C 21.6 °C 1011.4 hPa SW 6.4 km/h 11.3 km/h 82 % 0 mm
22:46 24.9 °C 21.6 °C 1011.1 hPa South 6.4 km/h 11.3 km/h 82 % 0 mm
22:51 24.8 °C 21.7 °C 1011.1 hPa SSE 4.8 km/h 11.3 km/h 83 % 0 mm
22:56 24.8 °C 21.9 °C 1011.1 hPa SSW 3.2 km/h 12.9 km/h 84 % 0 mm
23:01 24.8 °C 21.9 °C 1011.1 hPa South 6.4 km/h 12.9 km/h 84 % 0 mm
23:06 24.7 °C 21.8 °C 1011.1 hPa South 3.2 km/h 12.9 km/h 84 % 0 mm
23:11 24.7 °C 22 °C 1011.1 hPa SSE 3.2 km/h 12.9 km/h 85 % 0 mm
23:16 24.7 °C 22 °C 1011.1 hPa SSE 3.2 km/h 12.9 km/h 85 % 0 mm
23:21 24.7 °C 22.2 °C 1011.1 hPa SE 6.4 km/h 12.9 km/h 86 % 0 mm
23:26 24.7 °C 22.2 °C 1011.1 hPa SE 11.3 km/h 12.9 km/h 86 % 0 mm
23:31 24.7 °C 22.2 °C 1011.1 hPa South 12.9 km/h 16.1 km/h 86 % 0 mm
23:36 24.7 °C 22.2 °C 1011.1 hPa SSE 9.7 km/h 16.1 km/h 86 % 0 mm
23:41 24.7 °C 22.2 °C 1010.7 hPa South 9.7 km/h 16.1 km/h 86 % 0 mm
23:46 24.7 °C 22.2 °C 1010.7 hPa SSE 4.8 km/h 16.1 km/h 86 % 0 mm
23:51 24.7 °C 22.2 °C 1010.7 hPa SSE 9.7 km/h 14.5 km/h 86 % 0 mm
23:56 24.6 °C 22.3 °C 1010.7 hPa SSW 4.8 km/h 14.5 km/h 87 % 0 mm
Spring, Texas: Villages of Bridgestone
Compliments of Weather Underground - 2.75 mb

Script developed by  Jim McMurry - jmcmurry@mwt.net Adapted for the template by  Wim van der Kuil - Leuven-Template.eu

You find our weather info also at:

UK Metoffice

WeatherCloud

Weather Underground

Mid-South Weather Network

AWEKAS

Citizen Weather Observer Program (CWOP)

HAMweather, WeatherForYou, PWS Weather

Equipment we use:

Weather-station
Davis Vantage Vue

Weather-program
Meteohub

Weather-server
Debian 7.9 x86 (Guest)

Provider
DreamHost

Davis Vantage Vue

Meteohub

Debian 7.9 x86 (Guest)

DreamHost